STARLINK-37893, 69486

Orbit data source: Space-Track

STARLINK-37893, 69486 is a payload satellite owned by SpaceX/Seattle (US) in SSO that was launched on Thu, 11 Jun 2026 UTC via an FALCON 9 launch vehicle from the Air Force Western Test Range (AFWTR). Payload-class satellites include a variety of spacecraft equipped with specific instruments for various scientific and technological missions. These include communications satellites like Starlink; space stations such as the ISS; scientific satellites like the Hubble; Earth observation satellites from companies like Planet Labs, Umbra, and HawkEye 360; GPS; miniature CubeSats for education and research; and military/defense satellites.

Loading next visibility...
Identifier
69486, 2026-131J
Orbit
SSO
Country
Flag of USUS
Related business
Manufacturer
SpaceX/Seattle
Mission
Operational spacecraft
Bus & Motor
STARLINK V2MO, Unknown motor
Mass
575 kg wet, ~530 kg dry
Launch date (UTC)
2026-06-11 (1 week ago)
Launch vehicle
FALCON 9
Launch site
Air Force Western Test Range (AFWTR)
Object type
Payload
Rocket body
Debris
Shape & HBR
Unknown
Radar Cross Section
RCS unknown

Expand to show TLE details & history
Last TLE update: 10 hours ago

TLE from 10 hours ago
0 STARLINK-37893
1 69486U 26131J   26171.41668980 -.01079893  34505-3 -33941-2 0  9996
2 69486  97.2834 191.8587 0000992  88.2123 218.6179 15.91400170  2612
Epoch: 2026-06-20T10:00Z
TLE epoch observation values (Epoch: 2026-06-20T10:00:01.998Z)
Latitude
-52.82067°
Longitude
142.86459°
Altitude
319.476 km
Speed
7.715 km/s
True Right ascension
13h 26m 01s
True Declination
-52° 38' 39"
Sunlit
Object was in full shadow at epoch
Visualization orbit readout
Latitude
Unknown
Longitude
Unknown
Altitude
Unknown
Speed
Unknown
Apparent Right ascension
Unknown
Apparent Declination
Unknown
Sunlit
N/A
Visualization observer readout
Local Sidereal Time
07:12:01
Azimuth
Unknown
Elevation
Unknown
Doppler factor
Unknown
Orbital elements
Apogee altitude
295.892 km
Perigee altitude
294.568 km
Semi-major axis
6,673.367 km
Eccentricity
0.0001
Inclination
97.2834°
RAAN
191.8587°
Arg. of periapsis
88.2123°
True anomaly
218.61081°
Mean anomaly
218.6179°
Eccentric anomaly
218.61435°
Mean motion
3.98131 °/min
Orbital period
90.42 mins
BSTAR
-0.0033941
Loading maneuver chart data...
Computing Atmospheric mass density...
Loading historical data...
Loading historical data...
Loading historical data...
Loading historical data...
Loading historical data...
Loading historical data...
Loading historical data...

Documentation

Showing up to 5 results
|